QPF
0.02 0.12 0.23 0.13 0.01 0.00 0.00 0.00 0.00 0.00 0.00 0.00 0.00 0.00 0.00 0.00 0.00 0.00 0.00 0.00 0.00 0.01 0.01 0.05 0.08 0.12 0.19 0.17 0.10 0.11 0.10 0.06 0.01 0.00 0.00 0.00 0.00 0.00 0.00 0.00 0.00 0.00 0.00
0.00 0.03 0.03 0.01 0.00 0.00 0.00 0.00 0.00 0.00 0.00 0.00 0.00 0.00 0.00 0.00 0.00 0.00 0.00 0.00 0.00 0.00 0.00 0.01 0.02 0.10 0.11 0.16 0.16 0.12 0.14 0.11 0.02 0.00 0.00 0.00 0.00 0.00 0.00 0.00 0.00 0.00 0.00
0.00 0.00 0.02 0.02 0.00 0.00 0.00 0.00 0.00 0.00 0.00 0.00 0.00 0.00 0.00 0.00 0.00 0.00 0.00 0.00 0.00 0.00 0.00 0.00 0.00 0.02 0.05 0.03 0.02 0.01 0.01 0.00 0.00 0.00 0.00 0.00 0.00 0.00 0.00 0.00 0.00 0.00 0.00
0.00 0.00 0.03 0.02 0.00 0.00 0.00 0.00 0.00 0.00 0.00 0.00 0.00 0.00 0.00 0.00 0.00 0.00 0.00 0.00 0.00 0.00 0.00 0.00 0.00 0.00 0.01 0.01 0.02 0.01 0.00 0.00 0.00 0.00 0.00 0.00 0.00 0.00 0.00 0.00 0.00 0.00 0.00
0.00 0.01 0.03 0.00 0.00 0.00 0.00 0.00 0.00 0.00 0.00 0.00 0.00 0.00 0.00 0.00 0.00 0.00 0.00 0.00 0.00 0.00 0.00 0.00 0.00 0.00 0.00 0.00 0.01 0.01 0.01 0.00 0.00 0.00 0.00 0.00 0.00 0.00 0.00 0.00 0.00 0.00 0.00
0.00 0.01 0.04 0.01 0.00 0.00 0.00 0.00 0.00 0.00 0.00 0.00 0.00 0.00 0.00 0.00 0.00 0.00 0.00 0.00 0.00 0.00 0.00 0.00 0.00 0.00 0.00 0.00 0.00 0.00 0.00 0.01 0.01 0.00 0.00 0.00 0.00 0.00 0.00 0.00 0.00 0.00 0.01
0.00 0.02 0.03 0.02 0.01 0.02 0.03 0.01 0.00 0.00 0.00 0.00 0.00 0.00 0.00 0.00 0.00 0.00 0.00 0.00 0.00 0.00 0.00 0.00 0.00 0.00 0.00 0.00 0.00 0.00 0.00 0.00 0.01 0.01 0.02 0.02 0.02 0.01 0.01 0.00 0.00 0.01 0.01
0.02 0.03 0.01 0.01 0.13 0.11 0.05 0.07 0.02 0.00 0.00 0.00 0.00 0.00 0.00 0.00 0.00 0.00 0.00 0.00 0.00 0.00 0.00 0.00 0.00 0.00 0.00 0.00 0.00 0.00 0.00 0.00 0.00 0.00 0.00 0.00 0.00 0.00 0.01 0.01 0.01 0.01 0.00
0.02 0.02 0.00 0.00 0.03 0.01 0.02 0.03 0.01 0.01 0.00 0.00 0.00 0.00 0.00 0.00 0.00 0.00 0.00 0.00 0.00 0.00 0.00 0.00 0.00 0.00 0.00 0.00 0.00 0.00 0.00 0.00 0.00 0.00 0.00 0.00 0.00 0.00 0.00 0.00 0.01 0.00 0.01
0.01 0.04 0.00 0.00 0.00 0.01 0.01 0.00 0.00 0.00 0.01 0.01 0.00 0.00 0.00 0.00 0.00 0.00 0.00 0.00 0.00 0.00 0.00 0.00 0.00 0.00 0.00 0.00 0.00 0.00 0.00 0.00 0.00 0.00 0.00 0.00 0.00 0.00 0.00 0.00 0.00 0.00 0.00
0.00 0.02 0.01 0.00 0.01 0.03 0.02 0.00 0.00 0.05 0.01 0.01 0.01 0.01 0.00 0.00 0.00 0.00 0.00 0.00 0.00 0.00 0.00 0.00 0.00 0.00 0.00 0.00 0.00 0.00 0.00 0.00 0.00 0.00 0.00 0.00 0.00 0.00 0.00 0.00 0.00 0.00 0.00
0.00 0.00 0.01 0.00 0.01 0.02 0.01 0.00 0.01 0.06 0.02 0.00 0.00 0.00 0.00 0.00 0.00 0.00 0.00 0.00 0.00 0.00 0.00 0.00 0.00 0.00 0.00 0.00 0.00 0.00 0.00 0.00 0.00 0.00 0.00 0.00 0.00 0.00 0.00 0.00 0.00 0.00 0.00
0.00 0.00 0.00 0.02 0.03 0.04 0.08 0.06 0.04 0.05 0.01 0.00 0.00 0.01 0.00 0.00 0.00 0.00 0.00 0.00 0.00 0.00 0.00 0.00 0.00 0.00 0.00 0.00 0.00 0.00 0.00 0.00 0.00 0.00 0.00 0.00 0.00 0.00 0.00 0.00 0.00 0.00 0.00
0.01 0.01 0.01 0.01 0.03 0.01 0.03 0.08 0.06 0.03 0.02 0.01 0.01 0.01 0.00 0.00 0.00 0.00 0.00 0.00 0.00 0.00 0.00 0.00 0.00 0.00 0.00 0.00 0.00 0.00 0.00 0.00 0.00 0.00 0.00 0.00 0.00 0.00 0.00 0.00 0.00 0.00 0.00
0.00 0.00 0.00 0.00 0.00 0.00 0.00 0.00 0.01 0.00 0.01 0.03 0.03 0.02 0.00 0.00 0.00 0.00 0.00 0.00 0.00 0.00 0.00 0.00 0.00 0.00 0.00 0.00 0.00 0.00 0.00 0.00 0.00 0.00 0.00 0.00 0.00 0.00 0.00 0.00 0.00 0.00 0.00
0.00 0.00 0.00 0.00 0.00 0.00 0.00 0.00 0.00 0.00 0.00 0.00 0.01 0.01 0.00 0.00 0.00 0.00 0.00 0.00 0.00 0.00 0.00 0.00 0.00 0.00 0.00 0.00 0.00 0.00 0.00 0.00 0.00 0.00 0.00 0.00 0.00 0.00 0.00 0.00 0.00 0.00 0.00
0.00 0.00 0.00 0.00 0.00 0.00 0.00 0.00 0.00 0.01 0.00 0.01 0.01 0.01 0.00 0.00 0.00 0.00 0.00 0.00 0.00 0.00 0.00 0.00 0.00 0.00 0.00 0.00 0.00 0.00 0.00 0.00 0.00 0.00 0.00 0.00 0.00 0.00 0.00 0.00 0.00 0.00 0.00
0.00 0.00 0.00 0.00 0.00 0.00 0.00 0.00 0.00 0.01 0.02 0.01 0.01 0.00 0.00 0.00 0.00 0.00 0.00 0.00 0.00 0.00 0.00 0.00 0.00 0.00 0.00 0.00 0.00 0.00 0.00 0.00 0.00 0.00 0.00 0.00 0.00 0.00 0.00 0.00 0.00 0.00 0.00
0.00 0.00 0.00 0.00 0.00 0.00 0.00 0.00 0.00 0.00 0.00 0.00 0.00 0.00 0.00 0.00 0.00 0.00 0.00 0.00 0.00 0.00 0.00 0.00 0.00 0.00 0.00 0.00 0.00 0.00 0.00 0.00 0.00 0.00 0.00 0.00 0.00 0.00 0.00 0.00 0.00 0.00 0.00
0.00 0.00 0.00 0.00 0.00 0.00 0.00 0.00 0.00 0.00 0.00 0.00 0.00 0.00 0.00 0.00 0.00 0.00 0.00 0.00 0.00 0.00 0.00 0.00 0.00 0.00 0.00 0.00 0.00 0.00 0.00 0.00 0.00 0.00 0.00 0.00 0.00 0.00 0.00 0.00 0.00 0.00 0.00
0.00 0.00 0.00 0.00 0.00 0.00 0.00 0.00 0.00 0.00 0.00 0.00 0.00 0.00 0.00 0.00 0.00 0.00 0.00 0.00 0.00 0.00 0.00 0.00 0.00 0.00 0.00 0.00 0.00 0.00 0.00 0.00 0.00 0.00 0.00 0.00 0.00 0.00 0.00 0.00 0.00 0.00 0.00
0.00 0.00 0.00 0.00 0.00 0.00 0.00 0.00 0.00 0.00 0.00 0.00 0.00 0.00 0.00 0.00 0.00 0.00 0.00 0.00 0.00 0.00 0.00 0.00 0.00 0.00 0.00 0.00 0.00 0.00 0.00 0.00 0.00 0.00 0.00 0.00 0.00 0.00 0.00 0.00 0.00 0.00 0.00
0.00 0.00 0.00 0.00 0.00 0.00 0.00 0.00 0.00 0.00 0.00 0.00 0.00 0.00 0.00 0.00 0.00 0.00 0.00 0.00 0.00 0.00 0.00 0.00 0.00 0.00 0.00 0.00 0.00 0.00 0.00 0.00 0.00 0.00 0.00 0.00 0.00 0.00 0.00 0.00 0.00 0.00 0.00
0.00 0.00 0.00 0.00 0.00 0.00 0.00 0.00 0.00 0.00 0.00 0.00 0.00 0.00 0.00 0.00 0.00 0.00 0.00 0.00 0.00 0.00 0.00 0.00 0.00 0.00 0.00 0.00 0.00 0.00 0.00 0.00 0.00 0.00 0.00 0.00 0.00 0.00 0.00 0.00 0.00 0.00 0.00
0.00 0.00 0.00 0.00 0.00 0.00 0.00 0.00 0.00 0.00 0.00 0.00 0.00 0.00 0.00 0.00 0.00 0.00 0.00 0.00 0.00 0.00 0.00 0.00 0.00 0.00 0.00 0.00 0.00 0.00 0.00 0.00 0.00 0.00 0.00 0.00 0.00 0.00 0.00 0.00 0.00 0.00 0.00
0.00 0.00 0.00 0.00 0.00 0.00 0.00 0.00 0.00 0.00 0.00 0.00 0.00 0.00 0.00 0.00 0.00 0.00 0.00 0.00 0.00 0.00 0.00 0.00 0.00 0.00 0.00 0.00 0.00 0.00 0.00 0.00 0.00 0.00 0.00 0.00 0.00 0.00 0.00 0.00 0.00 0.00 0.00
MSLP
1014.20 1014.96 1015.07 1014.73 1014.83 1015.02 1015.19 1015.14 1015.38 1015.81 1016.01 1016.04 1015.94 1015.80 1015.74 1015.78 1015.92 1015.87 1015.56 1015.32 1015.18 1014.85 1014.67 1014.61 1014.27 1014.06 1014.06 1014.06 1014.06 1014.35 1014.57 1015.21 1016.78 1018.80 1019.42 1020.05 1020.33 1020.47 1020.60 1020.53 1020.64 1020.78 1020.84
1014.80 1015.31 1015.62 1015.50 1015.54 1015.08 1015.40 1015.47 1015.76 1016.26 1016.29 1016.14 1016.06 1016.00 1015.90 1015.99 1015.99 1016.03 1015.95 1015.88 1015.72 1015.47 1015.21 1015.04 1014.73 1014.56 1014.58 1014.64 1014.77 1014.97 1015.20 1015.52 1016.26 1018.32 1019.60 1020.42 1020.75 1021.02 1021.25 1021.22 1021.32 1021.25 1021.33
1014.86 1015.19 1015.18 1015.39 1014.96 1015.37 1015.56 1015.76 1016.02 1016.18 1016.30 1016.45 1016.52 1016.38 1016.31 1016.20 1016.14 1016.13 1016.22 1016.33 1016.40 1016.48 1016.19 1016.01 1015.65 1015.30 1015.30 1015.32 1015.44 1015.86 1016.13 1016.58 1017.20 1018.24 1019.64 1020.54 1021.15 1021.50 1021.69 1021.72 1021.72 1021.61 1021.44
1014.38 1014.40 1014.75 1014.96 1014.88 1015.32 1015.52 1015.80 1015.98 1016.03 1016.22 1016.56 1016.74 1016.69 1016.52 1016.45 1016.54 1016.43 1016.41 1016.41 1016.54 1016.73 1016.89 1016.80 1016.69 1016.53 1016.17 1015.84 1015.89 1016.21 1016.92 1017.33 1017.80 1018.40 1019.62 1020.55 1021.12 1021.54 1021.62 1021.71 1021.82 1021.70 1021.48
1014.16 1014.47 1014.48 1014.37 1014.84 1015.32 1015.55 1015.81 1016.02 1016.18 1016.42 1016.58 1016.59 1016.64 1016.58 1016.71 1017.18 1017.14 1016.86 1016.91 1016.99 1017.05 1017.23 1017.48 1017.62 1017.54 1017.28 1016.91 1016.57 1016.89 1017.10 1017.82 1018.52 1019.26 1019.97 1020.59 1021.10 1021.36 1021.25 1021.10 1020.78 1020.66 1020.87
1013.97 1014.16 1014.58 1014.69 1015.14 1015.53 1015.62 1015.91 1016.21 1016.36 1016.54 1016.61 1016.63 1016.70 1017.00 1017.54 1018.06 1017.86 1017.51 1017.50 1017.54 1017.54 1017.53 1017.52 1017.90 1017.90 1018.06 1017.96 1017.79 1017.76 1017.76 1017.79 1018.34 1018.90 1019.64 1019.93 1020.43 1020.47 1020.70 1020.34 1020.24 1020.28 1020.24
1013.39 1013.86 1014.44 1014.91 1015.28 1015.81 1015.92 1015.96 1016.14 1016.49 1016.67 1016.78 1016.74 1016.93 1017.60 1018.36 1018.62 1018.41 1018.10 1017.90 1017.85 1017.98 1018.00 1017.84 1017.62 1018.00 1017.94 1018.30 1018.46 1018.42 1018.49 1018.58 1018.62 1018.68 1019.06 1019.38 1019.75 1019.76 1019.94 1020.14 1020.17 1020.08 1019.97
1013.14 1013.74 1014.40 1015.04 1015.60 1016.13 1016.30 1016.57 1016.51 1016.63 1016.84 1017.01 1016.98 1017.38 1018.00 1018.91 1019.15 1019.00 1018.70 1018.32 1018.32 1018.40 1018.53 1018.74 1018.92 1018.98 1019.14 1018.76 1018.92 1019.18 1019.47 1019.68 1019.52 1019.28 1019.63 1019.85 1019.97 1019.93 1019.80 1019.86 1019.95 1020.03 1020.12
1013.02 1013.65 1014.40 1015.10 1015.46 1016.08 1016.42 1016.66 1016.90 1017.11 1017.38 1017.63 1017.38 1017.83 1018.33 1019.13 1019.44 1019.38 1019.23 1018.44 1018.58 1018.74 1019.25 1019.71 1019.46 1019.75 1019.76 1019.47 1019.31 1019.60 1019.89 1020.17 1020.72 1020.78 1020.85 1020.85 1020.77 1020.61 1020.29 1019.64 1019.42 1019.35 1018.93
1012.64 1013.42 1014.29 1015.00 1015.37 1015.68 1016.21 1016.44 1016.82 1017.53 1017.94 1017.88 1017.67 1017.85 1018.41 1019.14 1019.42 1019.42 1019.22 1018.52 1018.62 1018.78 1019.47 1020.22 1020.73 1020.85 1020.56 1020.13 1019.64 1019.61 1019.70 1019.74 1019.74 1020.39 1020.70 1020.68 1020.31 1020.46 1020.14 1019.93 1019.51 1018.90 1018.42
1012.34 1013.07 1013.97 1014.56 1015.07 1015.42 1016.00 1016.74 1017.09 1017.29 1017.49 1017.67 1017.86 1018.24 1018.45 1019.10 1019.44 1019.61 1019.52 1018.76 1018.82 1019.37 1019.47 1019.82 1021.09 1021.33 1021.10 1020.72 1020.30 1020.06 1020.24 1020.32 1020.08 1019.66 1019.33 1019.29 1019.22 1019.38 1019.55 1020.06 1020.37 1019.76 1019.44
1012.90 1013.20 1013.89 1014.39 1014.78 1015.12 1015.74 1016.42 1016.98 1017.14 1017.37 1017.63 1017.90 1018.58 1018.84 1019.12 1019.58 1019.84 1019.84 1019.73 1019.80 1019.60 1019.85 1020.55 1021.46 1021.48 1021.25 1021.13 1021.12 1021.05 1020.82 1020.30 1019.36 1019.21 1019.08 1019.30 1019.33 1019.31 1019.64 1020.22 1020.50 1020.41 1020.24
1013.65 1013.89 1014.16 1014.40 1014.47 1014.97 1015.39 1015.94 1016.65 1017.05 1016.99 1017.47 1017.86 1018.54 1018.84 1019.24 1019.71 1020.07 1020.23 1020.24 1020.16 1020.16 1020.55 1021.13 1021.42 1021.60 1021.14 1021.28 1021.01 1021.00 1020.79 1019.76 1019.33 1019.18 1019.33 1019.54 1019.86 1020.17 1020.27 1019.97 1019.92 1020.00 1020.16
1014.06 1014.11 1014.46 1014.67 1015.04 1015.39 1015.61 1015.92 1016.34 1016.65 1016.87 1017.03 1017.60 1018.06 1018.80 1018.89 1019.55 1019.90 1020.19 1020.40 1020.49 1020.64 1021.14 1021.42 1021.43 1021.60 1021.34 1020.96 1020.80 1020.50 1020.25 1020.12 1019.93 1019.86 1019.82 1019.84 1019.81 1019.78 1019.78 1019.95 1019.75 1019.64 1019.48
1014.44 1014.52 1014.88 1015.17 1015.75 1016.42 1017.18 1017.31 1016.78 1016.78 1016.84 1017.25 1017.84 1018.37 1018.74 1019.10 1018.82 1019.17 1019.52 1019.97 1020.42 1020.56 1020.71 1020.76 1020.69 1020.27 1019.90 1019.70 1019.76 1019.91 1019.92 1020.06 1019.99 1020.04 1019.94 1019.83 1019.68 1019.69 1019.65 1019.82 1019.81 1019.55 1019.29
1014.72 1014.59 1014.62 1014.88 1015.96 1016.56 1017.20 1017.52 1017.49 1017.36 1017.44 1017.77 1018.11 1018.62 1018.94 1018.95 1019.04 1019.49 1019.74 1020.22 1020.54 1020.44 1020.11 1019.74 1019.18 1018.76 1018.62 1018.74 1018.97 1019.42 1019.87 1020.16 1020.11 1020.17 1020.10 1020.03 1019.93 1019.82 1020.13 1019.82 1019.80 1019.70 1019.43
1014.67 1014.51 1014.77 1015.09 1015.84 1016.43 1016.98 1017.28 1017.64 1018.26 1018.08 1018.32 1018.56 1018.84 1019.00 1019.37 1019.66 1019.88 1020.23 1020.58 1020.51 1020.44 1019.71 1018.52 1018.01 1018.20 1018.37 1018.59 1018.66 1018.83 1019.17 1019.96 1020.62 1020.17 1020.12 1020.08 1019.95 1019.78 1020.03 1019.59 1019.48 1019.49 1019.48
1014.73 1014.73 1014.52 1014.64 1015.47 1016.16 1016.51 1016.80 1017.08 1017.63 1017.80 1018.46 1018.87 1019.04 1019.28 1019.62 1019.95 1020.25 1020.52 1020.52 1020.33 1020.18 1018.91 1017.61 1017.56 1017.86 1018.10 1018.41 1018.60 1018.86 1019.27 1019.72 1019.83 1020.08 1020.00 1019.98 1019.91 1019.84 1019.58 1019.49 1019.30 1019.22 1019.53
1014.50 1014.31 1014.15 1014.41 1014.76 1015.62 1016.22 1016.27 1016.37 1016.70 1017.20 1017.72 1018.57 1018.99 1019.52 1019.82 1020.04 1020.27 1020.33 1019.42 1018.49 1018.40 1017.88 1016.99 1017.27 1017.64 1018.03 1018.25 1018.54 1019.00 1019.47 1019.49 1019.72 1019.99 1019.68 1019.63 1019.60 1019.56 1019.39 1019.24 1019.13 1019.23 1019.33
1014.18 1014.53 1014.33 1014.34 1014.67 1015.02 1015.17 1015.37 1015.70 1015.94 1016.19 1016.29 1016.59 1017.12 1018.48 1019.42 1019.24 1019.17 1019.29 1018.76 1017.69 1016.52 1016.56 1016.60 1017.02 1017.49 1017.76 1018.12 1018.60 1019.01 1019.28 1019.53 1019.47 1019.46 1019.17 1019.36 1019.45 1019.30 1019.05 1018.92 1018.79 1018.64 1018.55
1013.52 1013.52 1014.01 1014.12 1013.98 1014.08 1014.16 1014.21 1014.12 1014.54 1014.49 1014.35 1014.82 1015.37 1016.87 1017.35 1016.95 1016.98 1017.21 1017.25 1016.71 1016.08 1016.06 1016.35 1016.54 1017.22 1017.63 1018.02 1018.24 1018.49 1018.46 1018.40 1018.50 1018.56 1018.80 1019.04 1018.99 1019.07 1018.94 1018.77 1018.65 1018.48 1018.14
1013.28 1013.04 1013.33 1012.94 1012.48 1012.79 1012.93 1012.76 1012.71 1012.93 1013.15 1013.54 1014.07 1015.76 1016.36 1016.60 1015.14 1015.32 1015.70 1015.92 1016.02 1015.89 1015.90 1016.31 1016.30 1016.24 1016.64 1016.96 1017.35 1017.79 1017.82 1017.97 1018.00 1018.06 1018.27 1018.56 1018.79 1018.83 1018.70 1018.54 1018.36 1018.09 1018.08
1012.63 1012.28 1011.94 1011.85 1011.57 1011.84 1012.05 1012.04 1012.30 1012.39 1012.62 1013.02 1013.68 1015.02 1015.78 1015.57 1014.62 1014.62 1014.90 1015.16 1015.46 1015.66 1015.90 1016.14 1016.43 1016.22 1016.30 1016.57 1017.38 1017.91 1018.05 1018.05 1018.06 1018.45 1018.83 1019.00 1019.02 1018.93 1018.82 1018.78 1018.80 1018.51 1018.30
1012.05 1011.30 1011.34 1011.23 1011.52 1011.73 1011.85 1011.82 1011.94 1012.19 1012.24 1012.60 1013.01 1013.63 1014.38 1014.61 1014.32 1014.22 1014.43 1014.62 1014.92 1015.19 1015.48 1016.02 1016.62 1016.44 1016.39 1016.99 1017.51 1017.99 1018.27 1018.95 1019.08 1018.96 1019.26 1019.38 1019.28 1019.14 1018.94 1018.86 1018.91 1018.57 1018.43
1011.65 1011.20 1011.18 1011.10 1011.18 1011.63 1011.54 1011.48 1011.59 1011.82 1012.21 1012.33 1012.82 1013.14 1013.31 1013.68 1014.25 1013.94 1013.86 1014.28 1014.50 1015.30 1016.13 1016.46 1016.64 1016.69 1017.00 1017.34 1017.37 1018.50 1019.92 1020.29 1020.15 1020.66 1019.98 1019.55 1019.25 1019.23 1019.25 1019.07 1018.84 1018.62 1018.49
1011.59 1011.49 1011.57 1011.51 1011.39 1011.32 1011.26 1011.31 1011.31 1011.57 1011.89 1012.12 1012.45 1012.83 1012.82 1013.52 1013.46 1013.67 1013.90 1014.16 1014.60 1015.01 1015.48 1015.94 1016.40 1016.82 1017.34 1017.69 1018.04 1019.72 1020.36 1020.62 1020.70 1021.04 1020.65 1019.65 1019.04 1018.94 1018.89 1018.73 1018.95 1018.68 1018.42
Thickness
5744 5728 5711 5718 5723 5724 5724 5729 5730 5728 5727 5727 5727 5728 5730 5731 5732 5733 5737 5740 5739 5741 5742 5740 5740 5741 5739 5738 5737 5734 5730 5725 5705 5692 5689 5683 5680 5679 5677 5677 5677 5677 5676
5739 5727 5720 5711 5714 5720 5720 5725 5724 5721 5722 5724 5725 5725 5727 5727 5729 5730 5731 5733 5733 5734 5736 5735 5735 5737 5734 5733 5730 5726 5724 5722 5714 5695 5686 5679 5676 5673 5671 5671 5669 5670 5669
5739 5731 5728 5722 5724 5720 5722 5721 5719 5718 5719 5717 5718 5719 5720 5723 5726 5727 5727 5726 5725 5724 5726 5725 5727 5729 5726 5725 5723 5717 5715 5711 5705 5695 5683 5677 5671 5668 5665 5664 5663 5664 5663
5741 5737 5730 5729 5729 5724 5722 5720 5718 5718 5716 5713 5712 5713 5717 5720 5720 5722 5723 5723 5722 5719 5717 5716 5715 5716 5717 5720 5718 5714 5706 5701 5697 5692 5681 5673 5668 5663 5661 5659 5656 5656 5656
5738 5730 5729 5731 5728 5723 5720 5718 5717 5716 5713 5711 5711 5713 5716 5716 5712 5713 5715 5715 5713 5712 5711 5708 5706 5705 5705 5706 5710 5706 5702 5693 5686 5679 5673 5667 5663 5659 5658 5659 5660 5659 5654
5736 5732 5727 5725 5722 5717 5715 5713 5711 5711 5709 5709 5709 5710 5708 5705 5699 5702 5706 5706 5705 5704 5703 5704 5700 5700 5696 5695 5696 5695 5694 5693 5686 5680 5672 5668 5662 5661 5657 5658 5656 5651 5648
5739 5733 5727 5719 5713 5708 5707 5707 5706 5705 5705 5704 5705 5705 5699 5693 5691 5693 5696 5699 5698 5696 5695 5697 5699 5695 5695 5691 5687 5686 5684 5682 5680 5678 5671 5667 5661 5660 5656 5651 5648 5646 5644
5739 5731 5723 5713 5707 5700 5699 5696 5698 5699 5698 5697 5698 5696 5692 5685 5682 5684 5687 5691 5690 5689 5686 5684 5682 5682 5679 5682 5679 5675 5671 5668 5668 5667 5662 5658 5654 5651 5649 5646 5642 5638 5634
5737 5729 5721 5713 5708 5701 5697 5694 5692 5691 5686 5684 5689 5688 5685 5680 5676 5677 5677 5686 5683 5681 5676 5671 5675 5672 5669 5671 5672 5666 5662 5657 5652 5650 5647 5644 5642 5639 5638 5639 5635 5632 5630
5739 5730 5722 5714 5708 5703 5697 5695 5692 5686 5680 5681 5684 5685 5680 5675 5672 5671 5673 5681 5678 5676 5671 5664 5659 5659 5659 5662 5666 5663 5658 5655 5653 5644 5639 5636 5634 5630 5628 5626 5626 5624 5624
5741 5732 5723 5716 5711 5706 5699 5692 5688 5686 5684 5681 5679 5678 5678 5673 5669 5667 5667 5675 5673 5668 5667 5665 5656 5650 5652 5653 5654 5654 5648 5644 5642 5643 5643 5638 5634 5629 5622 5614 5608 5609 5606
5733 5728 5721 5716 5712 5708 5700 5694 5689 5687 5684 5681 5678 5672 5672 5671 5667 5663 5663 5663 5662 5664 5661 5656 5647 5644 5644 5642 5641 5638 5636 5633 5639 5635 5632 5625 5621 5618 5613 5603 5597 5594 5591
5722 5718 5715 5713 5711 5706 5700 5695 5688 5684 5686 5681 5678 5670 5668 5665 5662 5657 5655 5654 5654 5655 5651 5644 5640 5637 5637 5635 5631 5628 5625 5630 5628 5623 5617 5612 5606 5600 5596 5595 5592 5587 5583
5714 5713 5709 5706 5700 5698 5697 5693 5689 5685 5683 5682 5676 5672 5663 5664 5658 5655 5652 5648 5644 5643 5637 5634 5632 5628 5627 5627 5623 5622 5619 5615 5611 5606 5602 5600 5597 5593 5591 5586 5583 5581 5578
5705 5704 5699 5697 5690 5683 5677 5674 5681 5680 5679 5674 5668 5662 5659 5656 5660 5656 5652 5646 5639 5635 5632 5630 5628 5628 5627 5624 5619 5614 5611 5605 5600 5596 5593 5590 5589 5585 5582 5578 5574 5572 5568
5693 5694 5695 5693 5682 5676 5671 5668 5666 5667 5667 5663 5660 5655 5652 5650 5649 5644 5640 5634 5628 5627 5627 5626 5627 5628 5625 5620 5614 5606 5599 5591 5589 5585 5583 5580 5576 5574 5567 5568 5564 5559 5556
5682 5683 5681 5679 5673 5668 5665 5664 5661 5653 5652 5650 5648 5646 5646 5641 5636 5632 5627 5621 5619 5615 5619 5626 5626 5620 5613 5607 5603 5599 5593 5584 5576 5577 5574 5570 5568 5566 5561 5559 5556 5551 5545
5674 5669 5675 5674 5668 5663 5661 5659 5657 5653 5651 5644 5638 5637 5632 5629 5624 5620 5615 5612 5612 5606 5613 5621 5616 5610 5604 5598 5594 5589 5584 5578 5574 5568 5566 5562 5559 5555 5553 5549 5547 5543 5535
5671 5672 5672 5670 5667 5659 5652 5652 5652 5650 5645 5641 5632 5628 5619 5615 5613 5609 5604 5612 5615 5610 5610 5614 5608 5601 5594 5591 5586 5580 5573 5570 5565 5559 5559 5557 5553 5549 5546 5543 5538 5529 5525
5666 5661 5662 5661 5658 5655 5653 5650 5647 5643 5641 5641 5638 5634 5620 5611 5611 5608 5603 5603 5608 5614 5610 5606 5600 5593 5588 5584 5577 5571 5566 5561 5558 5555 5555 5550 5546 5542 5539 5535 5532 5529 5525
5663 5661 5656 5655 5655 5654 5652 5650 5650 5644 5644 5645 5640 5635 5621 5615 5617 5613 5608 5604 5605 5607 5603 5598 5594 5586 5580 5575 5571 5567 5564 5561 5558 5555 5549 5544 5541 5534 5531 5528 5525 5522 5520
5654 5655 5651 5653 5658 5653 5650 5651 5651 5648 5645 5640 5635 5619 5610 5610 5619 5615 5610 5605 5602 5600 5596 5590 5586 5585 5580 5575 5570 5563 5560 5555 5552 5549 5544 5538 5532 5527 5524 5521 5518 5516 5512
5647 5649 5652 5651 5653 5647 5645 5645 5641 5639 5636 5632 5626 5614 5606 5606 5612 5610 5606 5602 5597 5592 5587 5583 5577 5576 5573 5569 5559 5551 5548 5545 5542 5535 5529 5524 5520 5516 5514 5510 5505 5503 5501
5639 5645 5643 5643 5640 5637 5634 5633 5632 5628 5628 5624 5620 5615 5607 5603 5604 5603 5600 5597 5592 5586 5581 5574 5567 5565 5562 5555 5549 5542 5536 5528 5524 5521 5516 5511 5508 5505 5503 5500 5495 5494 5492
5628 5631 5631 5631 5630 5625 5625 5625 5624 5622 5618 5616 5612 5607 5605 5601 5594 5596 5595 5590 5585 5576 5567 5562 5557 5554 5548 5542 5539 5530 5521 5515 5508 5503 5500 5499 5498 5494 5490 5488 5487 5485 5482
5615 5616 5615 5615 5616 5617 5617 5615 5616 5613 5611 5609 5605 5599 5599 5591 5590 5587 5583 5579 5574 5568 5561 5554 5548 5542 5535 5530 5525 5513 5507 5501 5495 5490 5486 5487 5489 5486 5484 5481 5476 5475 5474